Location: Helstorf
(52.5868°N, 9.5862°E)
Time: 21:16:33
(UTC+00:00)

Cosmos 468 Rocket - Pass Details

Date: 15 May 2026
Orbit: 740 x 773 km, 74.0° (Epoch: 8 June)

Event Time Altitude Azimuth Distance (km) Brightness Sun altitude
Exits shadow 22:30:14 19° 214° (SW) 1,765 5.5 -17.6°
Maximum altitude 22:34:02 74° 298° (WNW) 806 4.1 -17.7°
Drops below altitude 10° 22:39:17 10° 23° (NNE) 2,314 7.3 -17.9°
Sets 22:41:40 0° 25° (NNE) 3,239 8.2 -17.9°
